CFG2185 EDDF-EDDL

Flight info

Callsign CFG2185
Flight time N/A
Altitude 24000
Route MARUN9S/18 MARUN Y152 ARPEG Z850 ADEMI T854 DOMUX DOMUX1A
Aircraft A320/M-SDE3FGHIRWY/LB1

Departure

Time 2026-04-16 12:00
Airport Frankfurt Main Airport (EDDF)

Arrival

Time N/A
Airport Düsseldorf Airport (EDDL)
Time Latitude Longitude Altitude Speed Heading
2026-04-16 11:38 50.03630 8.53872 341 ft 0 kts 159°
2026-04-16 11:55 50.03629 8.53873 341 ft 2 kts 159°
2026-04-16 11:56 50.03593 8.53894 340 ft 6 kts 160°
2026-04-16 11:56 50.03556 8.53887 341 ft 8 kts 229°
2026-04-16 11:56 50.03519 8.53734 336 ft 21 kts 249°
2026-04-16 11:56 50.03460 8.53486 337 ft 27 kts 249°
2026-04-16 11:57 50.03393 8.53209 337 ft 28 kts 250°
2026-04-16 11:57 50.03322 8.52914 333 ft 30 kts 250°
2026-04-16 11:57 50.03285 8.52758 333 ft 6 kts 249°
2026-04-16 11:57 50.03283 8.52750 333 ft 0 kts 250°
2026-04-16 11:58 50.03279 8.52733 334 ft 7 kts 250°
2026-04-16 11:58 50.03254 8.52629 334 ft 11 kts 249°
2026-04-16 11:59 50.03175 8.52595 335 ft 21 kts 179°
2026-04-16 11:59 50.02802 8.52597 335 ft 88 kts 179°
2026-04-16 11:59 50.01983 8.52606 335 ft 145 kts 180°
2026-04-16 11:59 50.00882 8.52623 657 ft 161 kts 179°
2026-04-16 12:00 49.99761 8.52626 1351 ft 163 kts 183°
2026-04-16 12:00 49.98618 8.52570 2040 ft 166 kts 192°
2026-04-16 12:00 49.97493 8.51900 2392 ft 183 kts 217°
2026-04-16 12:00 49.96503 8.50494 2738 ft 203 kts 225°
2026-04-16 12:01 49.95452 8.48865 3088 ft 224 kts 225°
2026-04-16 12:01 49.94340 8.47159 3868 ft 225 kts 225°
2026-04-16 12:01 49.93220 8.45456 4774 ft 226 kts 225°
2026-04-16 12:02 49.90780 8.41791 5919 ft 260 kts 225°
2026-04-16 12:02 49.89457 8.39831 6771 ft 265 kts 225°
2026-04-16 12:02 49.88190 8.37739 7574 ft 268 kts 238°
2026-04-16 12:02 49.87502 8.35059 8385 ft 271 kts 262°
2026-04-16 12:03 49.87621 8.32155 9219 ft 274 kts 287°
2026-04-16 12:03 49.88491 8.29509 10073 ft 278 kts 301°
2026-04-16 12:03 49.89552 8.26951 10659 ft 291 kts 301°
2026-04-16 12:03 49.90692 8.24207 10912 ft 314 kts 302°
2026-04-16 12:04 49.92148 8.21594 11215 ft 335 kts 319°
2026-04-16 12:04 49.94176 8.19733 11821 ft 345 kts 337°
2026-04-16 12:04 49.96549 8.18963 12535 ft 355 kts 356°
2026-04-16 12:04 49.99012 8.19483 13263 ft 364 kts 16°
2026-04-16 12:05 50.01365 8.21012 14000 ft 368 kts 21°
2026-04-16 12:05 50.03713 8.22651 14634 ft 372 kts 21°
2026-04-16 12:05 50.06080 8.24321 15258 ft 375 kts 21°